Time,TemperatureF,DewpointF,PressureIn,WindDirection,WindDirectionDegrees,WindSpeedMPH,WindSpeedGustMPH,Humidity,HourlyPrecipIn,Conditions,Clouds,dailyrainin,SoftwareType,DateUTC
2013-05-19 00:01:00,65.3,50.6,18.58,ESE,113,4.0,7.8,59,0.00,,,0.00,VWS V14.01,2013-05-19 04:01:00,
2013-05-19 00:02:00,65.3,50.6,18.58,ESE,115,4.0,7.8,59,0.00,,,0.00,VWS V14.01,2013-05-19 04:02:00,
2013-05-19 00:06:00,65.5,50.3,18.58,ESE,108,4.0,6.7,58,0.00,,,0.00,VWS V14.01,2013-05-19 04:06:00,
2013-05-19 00:08:00,65.5,50.3,18.58,ESE,110,4.0,7.8,58,0.00,,,0.00,VWS V14.01,2013-05-19 04:08:00,
2013-05-19 00:14:00,65.3,49.7,18.58,ESE,115,4.0,7.8,57,0.00,,,0.00,VWS V14.01,2013-05-19 04:14:00,
2013-05-19 00:16:00,65.3,49.7,18.58,ESE,111,3.4,8.9,57,0.00,,,0.00,VWS V14.01,2013-05-19 04:16:00,
2013-05-19 00:21:00,65.5,49.4,18.58,ESE,111,3.4,5.6,56,0.00,,,0.00,VWS V14.01,2013-05-19 04:21:00,
2013-05-19 00:26:00,65.3,49.2,18.58,ESE,111,0.0,0.0,56,0.00,,,0.00,VWS V14.01,2013-05-19 04:26:00,
2013-05-19 00:32:00,64.9,49.4,18.58,ESE,111,0.0,0.0,57,0.00,,,0.00,VWS V14.01,2013-05-19 04:32:00,
2013-05-19 00:38:00,64.8,49.2,18.58,ESE,111,0.0,0.0,57,0.00,,,0.00,VWS V14.01,2013-05-19 04:38:00,
2013-05-19 00:44:00,64.6,49.5,18.58,ESE,111,0.0,0.0,58,0.00,,,0.00,VWS V14.01,2013-05-19 04:44:00,
2013-05-19 00:49:00,64.6,49.0,18.58,ESE,111,0.0,0.0,57,0.00,,,0.00,VWS V14.01,2013-05-19 04:49:00,
2013-05-19 00:54:00,64.4,48.4,18.58,ESE,105,4.0,8.9,56,0.00,,,0.00,VWS V14.01,2013-05-19 04:54:00,
2013-05-19 00:59:00,64.2,47.7,18.58,ESE,105,3.4,6.7,55,0.00,,,0.00,VWS V14.01,2013-05-19 04:59:00,
2013-05-19 01:04:00,64.2,47.7,18.58,ESE,105,3.4,6.7,55,0.00,,,0.00,VWS V14.01,2013-05-19 05:04:00,
2013-05-19 01:10:00,64.0,47.1,18.58,ESE,105,4.0,6.7,54,0.00,,,0.00,VWS V14.01,2013-05-19 05:10:00,
2013-05-19 01:15:00,63.9,46.9,18.58,ESE,105,3.4,6.7,54,0.00,,,0.00,VWS V14.01,2013-05-19 05:15:00,
2013-05-19 01:21:00,63.7,46.2,18.58,ESE,108,4.0,6.7,53,0.00,,,0.00,VWS V14.01,2013-05-19 05:21:00,
2013-05-19 01:27:00,63.5,46.1,18.58,ESE,108,0.0,6.7,53,0.00,,,0.00,VWS V14.01,2013-05-19 05:27:00,
2013-05-19 01:32:00,63.5,46.6,18.58,ESE,108,0.0,0.0,54,0.00,,,0.00,VWS V14.01,2013-05-19 05:32:00,
2013-05-19 01:37:00,63.5,46.6,18.58,ESE,108,0.0,0.0,54,0.00,,,0.00,VWS V14.01,2013-05-19 05:37:00,
2013-05-19 01:42:00,63.3,46.4,18.58,ESE,108,0.0,0.0,54,0.00,,,0.00,VWS V14.01,2013-05-19 05:42:00,
2013-05-19 01:47:00,63.1,46.2,18.58,ESE,108,0.0,0.0,54,0.00,,,0.00,VWS V14.01,2013-05-19 05:47:00,
2013-05-19 01:52:00,63.0,46.1,18.58,ESE,108,0.0,0.0,54,0.00,,,0.00,VWS V14.01,2013-05-19 05:52:00,
2013-05-19 01:58:00,62.8,46.4,18.58,ESE,108,0.0,0.0,55,0.00,,,0.00,VWS V14.01,2013-05-19 05:58:00,
2013-05-19 02:03:00,62.6,46.2,18.58,ESE,108,0.0,0.0,55,0.00,,,0.00,VWS V14.01,2013-05-19 06:03:00,
2013-05-19 02:09:00,62.4,46.5,18.58,ESE,108,0.0,0.0,56,0.00,,,0.00,VWS V14.01,2013-05-19 06:09:00,
2013-05-19 02:15:00,62.2,46.4,18.58,ESE,108,0.0,0.0,56,0.00,,,0.00,VWS V14.01,2013-05-19 06:15:00,
2013-05-19 02:21:00,62.2,46.4,18.58,ESE,108,0.0,0.0,56,0.00,,,0.00,VWS V14.01,2013-05-19 06:21:00,
2013-05-19 02:27:00,62.1,46.2,18.58,ESE,108,0.0,0.0,56,0.00,,,0.00,VWS V14.01,2013-05-19 06:27:00,
2013-05-19 02:32:00,61.7,45.9,18.58,ESE,108,0.0,0.0,56,0.00,,,0.00,VWS V14.01,2013-05-19 06:32:00,
2013-05-19 02:38:00,61.5,45.7,18.58,ESE,108,0.0,0.0,56,0.00,,,0.00,VWS V14.01,2013-05-19 06:38:00,
2013-05-19 02:43:00,61.5,45.7,18.58,ESE,108,0.0,0.0,56,0.00,,,0.00,VWS V14.01,2013-05-19 06:43:00,
2013-05-19 02:48:00,61.3,45.5,18.58,ESE,108,0.0,0.0,56,0.00,,,0.00,VWS V14.01,2013-05-19 06:48:00,
2013-05-19 02:53:00,61.2,45.4,18.58,ESE,108,0.0,0.0,56,0.00,,,0.00,VWS V14.01,2013-05-19 06:53:00,
2013-05-19 02:58:00,61.2,45.4,18.58,ESE,108,0.0,0.0,56,0.00,,,0.00,VWS V14.01,2013-05-19 06:58:00,
2013-05-19 03:03:00,60.8,45.0,18.58,ESE,108,0.0,0.0,56,0.00,,,0.00,VWS V14.01,2013-05-19 07:03:00,
2013-05-19 03:09:00,60.8,45.0,18.58,ESE,108,0.0,0.0,56,0.00,,,0.00,VWS V14.01,2013-05-19 07:09:00,
2013-05-19 03:15:00,60.6,45.3,18.58,ESE,108,0.0,0.0,57,0.00,,,0.00,VWS V14.01,2013-05-19 07:15:00,
2013-05-19 03:20:00,60.4,45.2,18.58,ESE,108,0.0,0.0,57,0.00,,,0.00,VWS V14.01,2013-05-19 07:20:00,
2013-05-19 03:26:00,60.4,45.2,18.58,ESE,108,0.0,0.0,57,0.00,,,0.00,VWS V14.01,2013-05-19 07:26:00,
2013-05-19 03:31:00,60.3,45.0,18.58,ESE,108,0.0,0.0,57,0.00,,,0.00,VWS V14.01,2013-05-19 07:31:00,
2013-05-19 03:37:00,60.3,44.5,18.58,ESE,108,0.0,0.0,56,0.00,,,0.00,VWS V14.01,2013-05-19 07:37:00,
2013-05-19 03:43:00,60.1,44.8,18.58,ESE,108,0.0,0.0,57,0.00,,,0.00,VWS V14.01,2013-05-19 07:43:00,
2013-05-19 03:48:00,60.1,44.8,18.58,ESE,108,0.0,0.0,57,0.00,,,0.00,VWS V14.01,2013-05-19 07:48:00,
2013-05-19 03:53:00,59.7,44.0,18.58,ESE,108,0.0,0.0,56,0.00,,,0.00,VWS V14.01,2013-05-19 07:53:00,
2013-05-19 03:59:00,59.7,44.5,18.58,ESE,108,0.0,0.0,57,0.00,,,0.00,VWS V14.01,2013-05-19 07:59:00,
2013-05-19 04:05:00,59.4,44.1,18.58,ESE,108,0.0,0.0,57,0.00,,,0.00,VWS V14.01,2013-05-19 08:05:00,
2013-05-19 04:11:00,59.4,44.1,18.58,ESE,108,0.0,0.0,57,0.00,,,0.00,VWS V14.01,2013-05-19 08:11:00,
2013-05-19 04:16:00,59.4,44.1,18.58,ESE,107,3.4,8.9,57,0.00,,,0.00,VWS V14.01,2013-05-19 08:16:00,
2013-05-19 04:22:00,59.2,44.0,18.58,ESE,107,3.4,6.7,57,0.00,,,0.00,VWS V14.01,2013-05-19 08:22:00,
2013-05-19 04:28:00,59.2,44.0,18.58,ESE,107,3.4,6.7,57,0.00,,,0.00,VWS V14.01,2013-05-19 08:28:00,
2013-05-19 04:33:00,59.2,44.0,18.58,ESE,103,3.4,6.7,57,0.00,,,0.00,VWS V14.01,2013-05-19 08:33:00,
2013-05-19 04:39:00,59.0,43.8,18.58,ESE,103,0.0,6.7,57,0.00,,,0.00,VWS V14.01,2013-05-19 08:39:00,
2013-05-19 04:44:00,58.8,43.6,18.58,ESE,103,4.0,6.7,57,0.00,,,0.00,VWS V14.01,2013-05-19 08:44:00,
2013-05-19 04:50:00,58.8,43.6,18.58,ESE,103,0.0,0.0,57,0.00,,,0.00,VWS V14.01,2013-05-19 08:50:00,
2013-05-19 04:55:00,58.6,43.5,18.58,ESE,103,0.0,0.0,57,0.00,,,0.00,VWS V14.01,2013-05-19 08:55:00,
2013-05-19 05:01:00,58.5,43.3,18.58,ESE,103,0.0,0.0,57,0.00,,,0.00,VWS V14.01,2013-05-19 09:01:00,
2013-05-19 05:06:00,58.5,43.3,18.58,ESE,103,0.0,0.0,57,0.00,,,0.00,VWS V14.01,2013-05-19 09:06:00,
2013-05-19 05:11:00,58.3,43.1,18.58,ESE,103,0.0,0.0,57,0.00,,,0.00,VWS V14.01,2013-05-19 09:11:00,
2013-05-19 05:16:00,58.3,43.1,18.58,ESE,103,0.0,0.0,57,0.00,,,0.00,VWS V14.01,2013-05-19 09:16:00,
2013-05-19 05:22:00,58.1,43.0,18.58,ESE,103,0.0,0.0,57,0.00,,,0.00,VWS V14.01,2013-05-19 09:22:00,
2013-05-19 05:27:00,58.1,43.0,18.58,ESE,103,0.0,0.0,57,0.00,,,0.00,VWS V14.01,2013-05-19 09:27:00,
2013-05-19 05:33:00,57.9,42.8,18.58,ESE,103,0.0,0.0,57,0.00,,,0.00,VWS V14.01,2013-05-19 09:33:00,
2013-05-19 05:38:00,57.9,42.8,18.58,ESE,103,0.0,0.0,57,0.00,,,0.00,VWS V14.01,2013-05-19 09:38:00,
2013-05-19 05:44:00,57.7,43.1,18.58,ESE,103,0.0,0.0,58,0.00,,,0.00,VWS V14.01,2013-05-19 09:44:00,
2013-05-19 05:50:00,57.9,42.8,18.58,ESE,103,0.0,0.0,57,0.00,,,0.00,VWS V14.01,2013-05-19 09:50:00,
2013-05-19 05:55:00,57.9,42.8,18.58,ESE,103,0.0,0.0,57,0.00,,,0.00,VWS V14.01,2013-05-19 09:55:00,
2013-05-19 06:00:00,57.7,42.6,18.58,ESE,103,0.0,0.0,57,0.00,,,0.00,VWS V14.01,2013-05-19 10:00:00,
2013-05-19 06:05:00,57.6,42.5,18.58,ESE,103,0.0,0.0,57,0.00,,,0.00,VWS V14.01,2013-05-19 10:05:00,
2013-05-19 06:11:00,57.4,42.3,18.58,ESE,103,0.0,0.0,57,0.00,,,0.00,VWS V14.01,2013-05-19 10:11:00,
2013-05-19 06:17:00,57.2,42.6,18.58,ESE,103,0.0,0.0,58,0.00,,,0.00,VWS V14.01,2013-05-19 10:17:00,
2013-05-19 06:22:00,57.2,42.6,18.58,ESE,103,0.0,0.0,58,0.00,,,0.00,VWS V14.01,2013-05-19 10:22:00,
2013-05-19 06:28:00,57.2,42.6,18.58,ESE,103,0.0,0.0,58,0.00,,,0.00,VWS V14.01,2013-05-19 10:28:00,
2013-05-19 06:33:00,57.4,42.7,18.58,ESE,103,0.0,0.0,58,0.00,,,0.00,VWS V14.01,2013-05-19 10:33:00,
2013-05-19 06:39:00,57.2,43.0,18.58,ESE,103,0.0,0.0,59,0.00,,,0.00,VWS V14.01,2013-05-19 10:39:00,
2013-05-19 06:45:00,57.4,43.2,18.58,ESE,112,4.7,7.8,59,0.00,,,0.00,VWS V14.01,2013-05-19 10:45:00,
2013-05-19 06:50:00,57.6,43.4,18.58,East,97,3.4,6.7,59,0.00,,,0.00,VWS V14.01,2013-05-19 10:50:00,
2013-05-19 06:56:00,57.6,43.4,18.58,East,99,3.4,6.7,59,0.00,,,0.00,VWS V14.01,2013-05-19 10:56:00,
2013-05-19 07:02:00,57.7,43.5,18.58,East,99,0.0,6.7,59,0.00,,,0.00,VWS V14.01,2013-05-19 11:02:00,
2013-05-19 07:07:00,57.7,43.5,18.58,East,99,4.0,6.7,59,0.00,,,0.00,VWS V14.01,2013-05-19 11:07:00,
2013-05-19 07:13:00,57.9,43.7,18.58,ESE,111,5.4,8.9,59,0.00,,,0.00,VWS V14.01,2013-05-19 11:13:00,
2013-05-19 07:18:00,58.1,43.9,18.58,East,96,4.0,6.7,59,0.00,,,0.00,VWS V14.01,2013-05-19 11:18:00,
2013-05-19 07:24:00,58.5,43.8,18.58,East,97,4.0,6.7,58,0.00,,,0.00,VWS V14.01,2013-05-19 11:24:00,
2013-05-19 07:30:00,60.3,45.0,18.58,ESE,109,4.0,7.8,57,0.00,,,0.00,VWS V14.01,2013-05-19 11:30:00,
2013-05-19 07:36:00,59.4,43.7,18.58,East,90,0.0,6.7,56,0.00,,,0.00,VWS V14.01,2013-05-19 11:36:00,
2013-05-19 07:42:00,59.2,44.0,18.58,ESE,102,4.7,7.8,57,0.00,,,0.00,VWS V14.01,2013-05-19 11:42:00,
2013-05-19 07:47:00,59.4,44.1,18.58,ESE,106,5.4,10.1,57,0.00,,,0.00,VWS V14.01,2013-05-19 11:47:00,
2013-05-19 07:53:00,59.4,44.1,18.58,ESE,104,6.0,10.1,57,0.00,,,0.00,VWS V14.01,2013-05-19 11:53:00,
2013-05-19 07:59:00,59.5,44.3,18.58,ESE,116,4.7,10.1,57,0.00,,,0.00,VWS V14.01,2013-05-19 11:59:00,
2013-05-19 08:04:00,59.9,44.7,18.58,ESE,111,4.0,8.9,57,0.00,,,0.00,VWS V14.01,2013-05-19 12:04:00,
2013-05-19 08:10:00,60.3,45.0,18.58,ESE,114,4.7,8.9,57,0.00,,,0.00,VWS V14.01,2013-05-19 12:10:00,
2013-05-19 08:16:00,60.6,45.3,18.58,ESE,118,4.7,10.1,57,0.00,,,0.00,VWS V14.01,2013-05-19 12:16:00,
2013-05-19 08:21:00,60.8,45.0,18.58,ESE,118,3.4,8.9,56,0.00,,,0.00,VWS V14.01,2013-05-19 12:21:00,
2013-05-19 08:27:00,61.2,45.4,18.58,ESE,118,0.0,0.0,56,0.00,,,0.00,VWS V14.01,2013-05-19 12:27:00,
2013-05-19 08:32:00,61.5,45.7,18.58,ESE,103,0.0,0.0,56,0.00,,,0.00,VWS V14.01,2013-05-19 12:32:00,
2013-05-19 08:37:00,61.7,45.4,18.58,ESE,103,0.0,0.0,55,0.00,,,0.00,VWS V14.01,2013-05-19 12:37:00,
2013-05-19 08:42:00,62.1,46.2,18.58,ESE,111,4.7,8.9,56,0.00,,,0.00,VWS V14.01,2013-05-19 12:42:00,
2013-05-19 08:48:00,62.4,46.5,18.58,ESE,114,3.4,7.8,56,0.00,,,0.00,VWS V14.01,2013-05-19 12:48:00,
2013-05-19 08:53:00,63.0,47.0,18.58,ESE,112,0.0,0.0,56,0.00,,,0.00,VWS V14.01,2013-05-19 12:53:00,
2013-05-19 08:59:00,63.9,48.3,18.58,ESE,107,5.4,8.9,57,0.00,,,0.00,VWS V14.01,2013-05-19 12:59:00,
2013-05-19 09:05:00,64.8,48.7,18.58,ESE,109,0.0,0.0,56,0.00,,,0.00,VWS V14.01,2013-05-19 13:05:00,
2013-05-19 09:11:00,65.1,49.0,18.58,ESE,111,0.0,6.7,56,0.00,,,0.00,VWS V14.01,2013-05-19 13:11:00,
2013-05-19 09:16:00,65.8,49.7,18.58,ESE,111,4.7,7.8,56,0.00,,,0.00,VWS V14.01,2013-05-19 13:16:00,
2013-05-19 09:21:00,66.4,49.7,18.58,ESE,117,0.0,0.0,55,0.00,,,0.00,VWS V14.01,2013-05-19 13:21:00,
2013-05-19 09:27:00,66.6,49.9,18.58,ESE,109,0.0,0.0,55,0.00,,,0.00,VWS V14.01,2013-05-19 13:27:00,
2013-05-19 09:32:00,67.6,50.9,18.58,SW,223,0.0,7.8,55,0.00,,,0.00,VWS V14.01,2013-05-19 13:32:00,
2013-05-19 09:37:00,67.8,51.1,18.58,ESE,106,0.0,0.0,55,0.00,,,0.00,VWS V14.01,2013-05-19 13:37:00,
2013-05-19 09:43:00,68.4,51.1,18.58,South,188,0.0,12.3,54,0.00,,,0.00,VWS V14.01,2013-05-19 13:43:00,
2013-05-19 09:48:00,68.7,51.4,18.58,SSW,212,0.0,0.0,54,0.00,,,0.00,VWS V14.01,2013-05-19 13:48:00,
2013-05-19 09:54:00,69.1,51.8,18.58,ESE,121,0.0,0.0,54,0.00,,,0.00,VWS V14.01,2013-05-19 13:54:00,
2013-05-19 09:59:00,69.4,52.1,18.58,ESE,110,0.0,7.8,54,0.00,,,0.00,VWS V14.01,2013-05-19 13:59:00,
2013-05-19 10:05:00,69.8,51.9,18.58,ESE,110,0.0,6.7,53,0.00,,,0.00,VWS V14.01,2013-05-19 14:05:00,
2013-05-19 10:11:00,70.2,51.7,18.58,ESE,110,4.0,6.7,52,0.00,,,0.00,VWS V14.01,2013-05-19 14:11:00,
2013-05-19 10:16:00,70.5,52.1,18.58,SE,141,0.0,0.0,52,0.00,,,0.00,VWS V14.01,2013-05-19 14:16:00,
2013-05-19 10:22:00,71.1,52.6,18.58,ESE,116,0.0,0.0,52,0.00,,,0.00,VWS V14.01,2013-05-19 14:22:00,
2013-05-19 10:27:00,71.6,52.5,18.58,ESE,117,0.0,5.6,51,0.00,,,0.00,VWS V14.01,2013-05-19 14:27:00,
2013-05-19 10:33:00,72.0,52.3,18.58,ENE,65,0.0,0.0,50,0.00,,,0.00,VWS V14.01,2013-05-19 14:33:00,
2013-05-19 10:39:00,72.5,52.8,18.58,ESE,108,0.0,0.0,50,0.00,,,0.00,VWS V14.01,2013-05-19 14:39:00,
2013-05-19 10:44:00,73.2,52.9,18.58,NW,305,0.0,0.0,49,0.00,,,0.00,VWS V14.01,2013-05-19 14:44:00,
2013-05-19 10:50:00,73.8,52.9,18.58,WSW,240,3.4,5.6,48,0.00,,,0.00,VWS V14.01,2013-05-19 14:50:00,
2013-05-19 10:56:00,74.7,53.1,18.58,NW,312,0.0,7.8,47,0.00,,,0.00,VWS V14.01,2013-05-19 14:56:00,
2013-05-19 11:02:00,75.6,52.8,18.58,NNW,328,0.0,0.0,45,0.00,,,0.00,VWS V14.01,2013-05-19 15:02:00,
2013-05-19 11:07:00,77.0,54.1,18.58,NNW,330,0.0,0.0,45,0.00,,,0.00,VWS V14.01,2013-05-19 15:07:00,
2013-05-19 11:12:00,77.9,53.6,18.58,NW,318,0.0,10.1,43,0.00,,,0.00,VWS V14.01,2013-05-19 15:12:00,
2013-05-19 11:18:00,79.2,54.8,18.58,WSW,255,0.0,8.9,43,0.00,,,0.00,VWS V14.01,2013-05-19 15:18:00,
2013-05-19 11:23:00,79.2,53.5,18.58,WNW,294,0.0,0.0,41,0.00,,,0.00,VWS V14.01,2013-05-19 15:23:00,
2013-05-19 11:29:00,80.8,55.6,18.58,North,357,0.0,0.0,42,0.00,,,0.00,VWS V14.01,2013-05-19 15:29:00,
2013-05-19 11:34:00,81.9,55.9,18.58,North,0,0.0,0.0,41,0.00,,,0.00,VWS V14.01,2013-05-19 15:34:00,
2013-05-19 11:39:00,82.0,54.0,18.58,NNW,330,6.0,10.1,38,0.00,,,0.00,VWS V14.01,2013-05-19 15:39:00,
2013-05-19 11:44:00,81.7,52.2,18.58,NNE,23,4.7,7.8,36,0.00,,,0.00,VWS V14.01,2013-05-19 15:44:00,
2013-05-19 11:49:00,82.8,54.6,18.58,North,349,0.0,0.0,38,0.00,,,0.00,VWS V14.01,2013-05-19 15:49:00,
2013-05-19 11:54:00,83.8,54.8,18.58,West,262,0.0,0.0,37,0.00,,,0.00,VWS V14.01,2013-05-19 15:54:00,
2013-05-19 12:01:00,84.4,53.8,18.58,WNW,286,0.0,12.3,35,0.00,,,0.00,VWS V14.01,2013-05-19 16:01:00,
2013-05-19 12:06:00,84.7,55.6,18.58,SSE,157,0.0,0.0,37,0.00,,,0.00,VWS V14.01,2013-05-19 16:06:00,
2013-05-19 12:11:00,85.8,56.6,18.58,ESE,113,4.0,10.1,37,0.00,,,0.00,VWS V14.01,2013-05-19 16:11:00,
2013-05-19 12:17:00,86.4,55.5,18.58,ESE,107,4.0,8.9,35,0.00,,,0.00,VWS V14.01,2013-05-19 16:17:00,
2013-05-19 12:22:00,84.0,52.7,18.58,ENE,68,4.0,6.7,34,0.00,,,0.00,VWS V14.01,2013-05-19 16:22:00,
2013-05-19 12:27:00,85.8,55.8,18.58,SE,143,0.0,0.0,36,0.00,,,0.00,VWS V14.01,2013-05-19 16:27:00,
2013-05-19 12:32:00,86.4,54.7,18.58,ESE,104,6.0,10.1,34,0.00,,,0.00,VWS V14.01,2013-05-19 16:32:00,
2013-05-19 12:38:00,87.1,53.7,18.58,SE,129,4.7,10.1,32,0.00,,,0.00,VWS V14.01,2013-05-19 16:38:00,
2013-05-19 12:43:00,87.6,54.2,18.58,ESE,110,7.4,13.4,32,0.00,,,0.00,VWS V14.01,2013-05-19 16:43:00,
2013-05-19 12:48:00,88.3,54.8,18.58,ESE,109,3.4,7.8,32,0.00,,,0.00,VWS V14.01,2013-05-19 16:48:00,
2013-05-19 12:54:00,88.9,54.4,18.58,SE,126,4.7,7.8,31,0.00,,,0.00,VWS V14.01,2013-05-19 16:54:00,
2013-05-19 12:59:00,89.1,53.6,18.58,ESE,116,7.4,12.3,30,0.00,,,0.00,VWS V14.01,2013-05-19 16:59:00,
2013-05-19 13:04:00,89.6,54.1,18.58,ESE,118,4.7,7.8,30,0.00,,,0.00,VWS V14.01,2013-05-19 17:04:00,
2013-05-19 13:11:00,89.1,51.8,18.58,SE,127,6.0,16.8,28,0.00,,,0.00,VWS V14.01,2013-05-19 17:11:00,
2013-05-19 13:16:00,89.2,52.9,18.58,East,95,4.7,8.9,29,0.00,,,0.00,VWS V14.01,2013-05-19 17:16:00,
2013-05-19 13:21:00,89.1,52.7,18.58,ESE,103,6.0,13.4,29,0.00,,,0.00,VWS V14.01,2013-05-19 17:21:00,
2013-05-19 13:27:00,90.0,52.5,18.58,ESE,119,4.0,12.3,28,0.00,,,0.00,VWS V14.01,2013-05-19 17:27:00,
2013-05-19 13:32:00,90.5,53.0,18.58,SE,146,3.4,6.7,28,0.00,,,0.00,VWS V14.01,2013-05-19 17:32:00,
2013-05-19 13:37:00,90.3,52.8,18.58,South,174,6.0,15.7,28,0.00,,,0.00,VWS V14.01,2013-05-19 17:37:00,
2013-05-19 13:42:00,91.0,53.4,18.58,SSW,211,0.0,6.7,28,0.00,,,0.00,VWS V14.01,2013-05-19 17:42:00,
2013-05-19 13:48:00,91.6,53.9,18.58,SE,142,0.0,8.9,28,0.00,,,0.00,VWS V14.01,2013-05-19 17:48:00,
2013-05-19 13:53:00,91.4,52.8,18.58,South,189,8.7,14.5,27,0.00,,,0.00,VWS V14.01,2013-05-19 17:53:00,
2013-05-19 13:58:00,90.5,53.0,18.58,South,187,4.0,8.9,28,0.00,,,0.00,VWS V14.01,2013-05-19 17:58:00,
2013-05-19 14:03:00,88.3,51.1,18.58,ESE,117,0.0,8.9,28,0.00,,,0.00,VWS V14.01,2013-05-19 18:03:00,
2013-05-19 14:09:00,90.5,53.0,18.58,SSE,162,3.4,7.8,28,0.00,,,0.00,VWS V14.01,2013-05-19 18:09:00,
2013-05-19 14:14:00,92.5,54.7,18.58,SE,143,4.7,12.3,28,0.00,,,0.00,VWS V14.01,2013-05-19 18:14:00,
2013-05-19 14:20:00,91.8,53.1,18.58,SW,229,4.0,10.1,27,0.00,,,0.00,VWS V14.01,2013-05-19 18:20:00,
2013-05-19 14:26:00,88.3,51.1,18.58,ESE,121,6.0,15.7,28,0.00,,,0.00,VWS V14.01,2013-05-19 18:26:00,
2013-05-19 14:32:00,88.3,51.1,18.58,ESE,103,7.4,12.3,28,0.00,,,0.00,VWS V14.01,2013-05-19 18:32:00,
2013-05-19 14:38:00,89.2,51.9,18.58,SE,129,4.0,11.2,28,0.00,,,0.00,VWS V14.01,2013-05-19 18:38:00,
2013-05-19 14:44:00,89.4,52.1,18.58,SE,145,0.0,7.8,28,0.00,,,0.00,VWS V14.01,2013-05-19 18:44:00,
2013-05-19 14:49:00,91.2,53.6,18.58,SE,139,5.4,12.3,28,0.00,,,0.00,VWS V14.01,2013-05-19 18:49:00,
2013-05-19 14:55:00,92.5,54.7,18.58,South,178,3.4,8.9,28,0.00,,,0.00,VWS V14.01,2013-05-19 18:55:00,
2013-05-19 15:01:00,91.4,52.8,18.58,SE,132,0.0,8.9,27,0.00,,,0.00,VWS V14.01,2013-05-19 19:01:00,
2013-05-19 15:07:00,92.1,53.4,18.58,SSE,151,4.7,12.3,27,0.00,,,0.00,VWS V14.01,2013-05-19 19:07:00,
2013-05-19 15:12:00,92.1,53.4,18.58,ESE,118,6.0,14.5,27,0.00,,,0.00,VWS V14.01,2013-05-19 19:12:00,
2013-05-19 15:17:00,93.4,54.4,18.58,South,178,4.0,10.1,27,0.00,,,0.00,VWS V14.01,2013-05-19 19:17:00,
2013-05-19 15:23:00,93.7,54.7,18.58,East,87,0.0,0.0,27,0.00,,,0.00,VWS V14.01,2013-05-19 19:23:00,
2013-05-19 15:29:00,93.6,53.6,18.58,ESE,121,4.7,14.5,26,0.00,,,0.00,VWS V14.01,2013-05-19 19:29:00,
2013-05-19 15:34:00,92.7,50.6,18.58,ESE,119,3.4,12.3,24,0.00,,,0.00,VWS V14.01,2013-05-19 19:34:00,
2013-05-19 15:39:00,93.2,53.2,18.58,ESE,112,6.0,11.2,26,0.00,,,0.00,VWS V14.01,2013-05-19 19:39:00,
2013-05-19 15:46:00,93.0,53.1,18.58,ESE,114,4.0,11.2,26,0.00,,,0.00,VWS V14.01,2013-05-19 19:46:00,
2013-05-19 15:51:00,93.7,53.7,18.58,ESE,114,6.7,12.3,26,0.00,,,0.00,VWS V14.01,2013-05-19 19:51:00,
2013-05-19 15:56:00,94.1,54.0,18.58,SE,136,0.0,0.0,26,0.00,,,0.00,VWS V14.01,2013-05-19 19:56:00,
2013-05-19 16:01:00,94.3,54.2,18.58,SE,139,6.0,10.1,26,0.00,,,0.00,VWS V14.01,2013-05-19 20:01:00,
2013-05-19 16:07:00,93.7,52.6,18.58,ESE,121,4.7,12.3,25,0.00,,,0.00,VWS V14.01,2013-05-19 20:07:00,
2013-05-19 16:13:00,94.1,52.9,18.58,ESE,105,5.4,10.1,25,0.00,,,0.00,VWS V14.01,2013-05-19 20:13:00,
2013-05-19 16:19:00,93.2,52.2,18.58,East,98,4.0,10.1,25,0.00,,,0.00,VWS V14.01,2013-05-19 20:19:00,
2013-05-19 16:24:00,93.6,53.6,18.58,SE,129,0.0,8.9,26,0.00,,,0.00,VWS V14.01,2013-05-19 20:24:00,
2013-05-19 16:29:00,93.2,53.2,18.58,SSE,157,5.4,8.9,26,0.00,,,0.00,VWS V14.01,2013-05-19 20:29:00,
2013-05-19 16:36:00,91.0,52.5,18.58,SE,141,5.4,10.1,27,0.00,,,0.00,VWS V14.01,2013-05-19 20:36:00,
2013-05-19 16:42:00,91.6,49.7,18.58,ESE,123,4.7,7.8,24,0.00,,,0.00,VWS V14.01,2013-05-19 20:42:00,
2013-05-19 16:47:00,90.1,50.7,18.58,SE,136,4.0,14.5,26,0.00,,,0.00,VWS V14.01,2013-05-19 20:47:00,
2013-05-19 16:53:00,91.0,52.5,18.58,ESE,120,5.4,8.9,27,0.00,,,0.00,VWS V14.01,2013-05-19 20:53:00,
2013-05-19 16:58:00,91.6,52.9,18.58,ESE,113,5.4,10.1,27,0.00,,,0.00,VWS V14.01,2013-05-19 20:58:00,
2013-05-19 17:04:00,91.4,51.7,18.58,ESE,118,8.7,20.1,26,0.00,,,0.00,VWS V14.01,2013-05-19 21:04:00,
2013-05-19 17:09:00,91.6,51.9,18.58,SE,129,3.4,8.9,26,0.00,,,0.00,VWS V14.01,2013-05-19 21:09:00,
2013-05-19 17:15:00,91.9,53.2,18.58,SW,217,8.7,14.5,27,0.00,,,0.00,VWS V14.01,2013-05-19 21:15:00,
2013-05-19 17:21:00,92.3,53.5,18.58,SSE,148,3.4,10.1,27,0.00,,,0.00,VWS V14.01,2013-05-19 21:21:00,
2013-05-19 17:27:00,91.8,53.1,18.58,ESE,116,0.0,7.8,27,0.00,,,0.00,VWS V14.01,2013-05-19 21:27:00,
2013-05-19 17:32:00,89.8,51.4,18.58,SSW,197,7.4,12.3,27,0.00,,,0.00,VWS V14.01,2013-05-19 21:32:00,
2013-05-19 17:37:00,89.1,51.8,18.58,SW,216,4.0,7.8,28,0.00,,,0.00,VWS V14.01,2013-05-19 21:37:00,
2013-05-19 17:43:00,88.7,51.4,18.58,SSE,154,5.4,12.3,28,0.00,,,0.00,VWS V14.01,2013-05-19 21:43:00,
2013-05-19 17:48:00,88.2,51.0,18.58,SSW,208,4.0,15.7,28,0.00,,,0.00,VWS V14.01,2013-05-19 21:48:00,
2013-05-19 17:54:00,87.6,50.5,18.58,SSE,166,4.7,11.2,28,0.00,,,0.00,VWS V14.01,2013-05-19 21:54:00,
2013-05-19 17:59:00,88.2,51.9,18.58,SW,225,4.0,6.7,29,0.00,,,0.00,VWS V14.01,2013-05-19 21:59:00,
2013-05-19 18:04:00,88.7,52.4,18.58,ESE,122,4.0,6.7,29,0.00,,,0.00,VWS V14.01,2013-05-19 22:04:00,
2013-05-19 18:10:00,89.1,51.8,18.58,SSE,155,3.4,6.7,28,0.00,,,0.00,VWS V14.01,2013-05-19 22:10:00,
2013-05-19 18:16:00,89.1,52.7,18.58,ESE,123,4.0,7.8,29,0.00,,,0.00,VWS V14.01,2013-05-19 22:16:00,
2013-05-19 18:22:00,89.6,52.2,18.58,SSE,149,0.0,10.1,28,0.00,,,0.00,VWS V14.01,2013-05-19 22:22:00,
2013-05-19 18:27:00,88.9,51.6,18.58,ESE,123,4.0,10.1,28,0.00,,,0.00,VWS V14.01,2013-05-19 22:27:00,
2013-05-19 18:32:00,88.5,51.3,18.58,ESE,120,5.4,12.3,28,0.00,,,0.00,VWS V14.01,2013-05-19 22:32:00,
2013-05-19 18:38:00,88.7,52.4,18.58,ESE,122,4.0,8.9,29,0.00,,,0.00,VWS V14.01,2013-05-19 22:38:00,
2013-05-19 18:43:00,88.9,52.5,18.58,ESE,116,4.7,8.9,29,0.00,,,0.00,VWS V14.01,2013-05-19 22:43:00,
2013-05-19 18:49:00,89.2,52.9,18.58,ESE,107,3.4,6.7,29,0.00,,,0.00,VWS V14.01,2013-05-19 22:49:00,
2013-05-19 18:54:00,88.7,52.4,18.58,SE,136,5.4,8.9,29,0.00,,,0.00,VWS V14.01,2013-05-19 22:54:00,
2013-05-19 19:01:00,87.4,51.3,18.58,East,95,6.0,12.3,29,0.00,,,0.00,VWS V14.01,2013-05-19 23:01:00,
2013-05-19 19:06:00,86.9,50.8,18.58,ESE,112,6.0,10.1,29,0.00,,,0.00,VWS V14.01,2013-05-19 23:06:00,
2013-05-19 19:12:00,86.2,50.2,18.58,SSE,153,0.0,7.8,29,0.00,,,0.00,VWS V14.01,2013-05-19 23:12:00,
2013-05-19 19:18:00,85.6,50.7,18.58,South,184,0.0,0.0,30,0.00,,,0.00,VWS V14.01,2013-05-19 23:18:00,
2013-05-19 19:24:00,85.1,50.2,18.58,SSE,158,4.0,7.8,30,0.00,,,0.00,VWS V14.01,2013-05-19 23:24:00,
2013-05-19 19:29:00,84.6,49.8,18.58,ESE,120,4.0,10.1,30,0.00,,,0.00,VWS V14.01,2013-05-19 23:29:00,
2013-05-19 19:34:00,84.0,50.2,18.58,ESE,103,4.7,10.1,31,0.00,,,0.00,VWS V14.01,2013-05-19 23:34:00,
2013-05-19 19:39:00,83.7,49.8,18.58,SSW,210,4.0,6.7,31,0.00,,,0.00,VWS V14.01,2013-05-19 23:39:00,
2013-05-19 19:46:00,82.9,50.1,18.58,ESE,120,4.7,10.1,32,0.00,,,0.00,VWS V14.01,2013-05-19 23:46:00,
2013-05-19 19:52:00,82.4,49.6,18.58,SE,124,5.4,8.9,32,0.00,,,0.00,VWS V14.01,2013-05-19 23:52:00,
2013-05-19 19:57:00,81.9,50.0,18.58,ESE,118,4.7,7.8,33,0.00,,,0.00,VWS V14.01,2013-05-19 23:57:00,
2013-05-19 20:03:00,81.5,49.7,18.58,ESE,113,7.4,15.7,33,0.00,,,0.00,VWS V14.01,2013-05-20 00:03:00,
2013-05-19 20:09:00,81.0,50.0,18.58,ESE,118,5.4,12.3,34,0.00,,,0.00,VWS V14.01,2013-05-20 00:09:00,
2013-05-19 20:14:00,80.6,49.7,18.58,ESE,116,6.0,13.4,34,0.00,,,0.00,VWS V14.01,2013-05-20 00:14:00,
2013-05-19 20:20:00,79.9,49.8,18.58,ESE,118,0.0,0.0,35,0.00,,,0.00,VWS V14.01,2013-05-20 00:20:00,
2013-05-19 20:25:00,79.3,50.1,18.58,ESE,123,3.4,7.8,36,0.00,,,0.00,VWS V14.01,2013-05-20 00:25:00,
2013-05-19 20:31:00,79.0,49.8,18.58,ESE,118,0.0,5.6,36,0.00,,,0.00,VWS V14.01,2013-05-20 00:31:00,
2013-05-19 20:36:00,78.4,50.8,18.58,ESE,112,4.0,6.7,38,0.00,,,0.00,VWS V14.01,2013-05-20 00:36:00,
2013-05-19 20:42:00,78.1,50.4,18.58,South,181,0.0,0.0,38,0.00,,,0.00,VWS V14.01,2013-05-20 00:42:00,
2013-05-19 20:48:00,77.5,50.7,18.58,SSW,196,0.0,0.0,39,0.00,,,0.00,VWS V14.01,2013-05-20 00:48:00,
2013-05-19 20:53:00,77.4,50.5,18.58,SSW,200,0.0,0.0,39,0.00,,,0.00,VWS V14.01,2013-05-20 00:53:00,
2013-05-19 20:59:00,76.8,50.7,18.58,SSW,200,0.0,0.0,40,0.00,,,0.00,VWS V14.01,2013-05-20 00:59:00,
2013-05-19 21:05:00,76.3,50.9,18.58,SSW,200,0.0,0.0,41,0.00,,,0.00,VWS V14.01,2013-05-20 01:05:00,
2013-05-19 21:11:00,75.7,50.4,18.58,SSW,201,0.0,0.0,41,0.00,,,0.00,VWS V14.01,2013-05-20 01:11:00,
2013-05-19 21:16:00,75.6,50.2,18.58,SSW,200,0.0,0.0,41,0.00,,,0.00,VWS V14.01,2013-05-20 01:16:00,
2013-05-19 21:21:00,75.0,50.4,18.58,SSW,200,0.0,0.0,42,0.00,,,0.00,VWS V14.01,2013-05-20 01:21:00,
2013-05-19 21:27:00,74.7,50.7,18.58,SSW,200,0.0,0.0,43,0.00,,,0.00,VWS V14.01,2013-05-20 01:27:00,
2013-05-19 21:33:00,74.3,50.4,18.58,SSW,200,0.0,0.0,43,0.00,,,0.00,VWS V14.01,2013-05-20 01:33:00,
2013-05-19 21:39:00,73.9,50.7,18.58,SSW,200,0.0,0.0,44,0.00,,,0.00,VWS V14.01,2013-05-20 01:39:00,
2013-05-19 21:46:00,73.4,50.8,18.58,SSE,165,0.0,0.0,45,0.00,,,0.00,VWS V14.01,2013-05-20 01:46:00,
2013-05-19 21:52:00,73.4,50.8,18.58,SSE,152,0.0,0.0,45,0.00,,,0.00,VWS V14.01,2013-05-20 01:52:00,
2013-05-19 21:58:00,73.4,50.8,18.58,SSE,152,0.0,0.0,45,0.00,,,0.00,VWS V14.01,2013-05-20 01:58:00,
2013-05-19 22:03:00,73.6,51.5,18.58,SSE,152,0.0,0.0,46,0.00,,,0.00,VWS V14.01,2013-05-20 02:03:00,
2013-05-19 22:08:00,73.6,51.5,18.58,SSE,152,0.0,0.0,46,0.00,,,0.00,VWS V14.01,2013-05-20 02:08:00,
2013-05-19 22:13:00,73.4,51.4,18.58,SSE,152,0.0,0.0,46,0.00,,,0.00,VWS V14.01,2013-05-20 02:13:00,
2013-05-19 22:19:00,73.2,51.8,18.58,SSE,152,0.0,0.0,47,0.00,,,0.00,VWS V14.01,2013-05-20 02:19:00,
2013-05-19 22:24:00,73.2,51.8,18.58,SSE,152,0.0,0.0,47,0.00,,,0.00,VWS V14.01,2013-05-20 02:24:00,
2013-05-19 22:30:00,73.0,51.6,18.58,SSE,148,0.0,0.0,47,0.00,,,0.00,VWS V14.01,2013-05-20 02:30:00,
2013-05-19 22:37:00,72.9,52.0,18.58,SE,140,0.0,0.0,48,0.00,,,0.00,VWS V14.01,2013-05-20 02:37:00,
2013-05-19 22:43:00,72.9,52.0,18.58,SE,140,0.0,0.0,48,0.00,,,0.00,VWS V14.01,2013-05-20 02:43:00,
2013-05-19 22:48:00,72.9,52.6,18.58,SE,139,0.0,0.0,49,0.00,,,0.00,VWS V14.01,2013-05-20 02:48:00,
2013-05-19 22:54:00,72.9,52.6,18.58,SE,137,0.0,0.0,49,0.00,,,0.00,VWS V14.01,2013-05-20 02:54:00,
2013-05-19 22:59:00,72.9,52.6,18.58,SE,137,0.0,0.0,49,0.00,,,0.00,VWS V14.01,2013-05-20 02:59:00,
2013-05-19 23:05:00,72.7,53.0,18.58,SE,127,0.0,0.0,50,0.00,,,0.00,VWS V14.01,2013-05-20 03:05:00,
2013-05-19 23:11:00,72.5,52.8,18.58,SSE,156,0.0,0.0,50,0.00,,,0.00,VWS V14.01,2013-05-20 03:11:00,
2013-05-19 23:17:00,72.3,52.7,18.58,SE,139,0.0,0.0,50,0.00,,,0.00,VWS V14.01,2013-05-20 03:17:00,
2013-05-19 23:23:00,72.1,52.5,18.58,SE,141,0.0,0.0,50,0.00,,,0.00,VWS V14.01,2013-05-20 03:23:00,
2013-05-19 23:28:00,72.1,53.0,18.58,SE,133,0.0,0.0,51,0.00,,,0.00,VWS V14.01,2013-05-20 03:28:00,
2013-05-19 23:33:00,72.1,53.0,18.58,South,176,0.0,0.0,51,0.00,,,0.00,VWS V14.01,2013-05-20 03:33:00,
2013-05-19 23:39:00,72.0,52.9,18.58,ESE,116,0.0,0.0,51,0.00,,,0.00,VWS V14.01,2013-05-20 03:39:00,
2013-05-19 23:44:00,72.0,53.4,18.58,ESE,116,0.0,0.0,52,0.00,,,0.00,VWS V14.01,2013-05-20 03:44:00,
2013-05-19 23:51:00,71.8,53.2,18.58,ESE,116,0.0,0.0,52,0.00,,,0.00,VWS V14.01,2013-05-20 03:51:00,
2013-05-19 23:57:00,71.6,53.6,18.58,ESE,122,0.0,0.0,53,0.00,,,0.00,VWS V14.01,2013-05-20 03:57:00,